Volver al catálogo

STARLINK-6171

ActivoComunicacionesVLEO
NORAD 56883·PAYLOAD·🇺🇸 United States

Lanzado Jun 12, 2023 desde Cape Canaveral Space Force Station

Loading…

Próximos Pases (próximas 24 horas)

TLE

ActualizadoSource: CelesTrak SupGP

Época: Sep 15, 2026, 02:31 UTC

1 56883C 23083H   26258.10534722  .00010748  00000+0  38922-3 0  2587
2 56883  43.0016  95.2662 0001437 275.3884   6.1719 15.27580804    13

Sigue STARLINK-6171 en tiempo real con AllMySat

Download on the App Store